This is the latest recevied weather packets stored in our database for station/object G6LTT. If no packets are shown the sender has not sent any weather packets the latest 10 day(s).
| Time | Temp. | Humidity | Pressure | Rain* | Wind** | Luminosity | Snow |
|---|---|---|---|---|---|---|---|
| 1777682163 | 12.22° C | 75% | 1047.6 hPa | 0 mm | - | - | - |
| 1777681083 | 12.22° C | 73% | 1047.9 hPa | 0 mm | - | - | - |
| 1777679643 | 12.78° C | 69% | 1047.8 hPa | 0 mm | - | - | - |
| 1777679236 | 13.33° C | 68% | 1048 hPa | 0 mm | - | - | - |
| 1777677613 | 13.89° C | 69% | 1048 hPa | 0 mm | - | - | - |
| 1777675508 | 15° C | 71% | 1048.1 hPa | 0 mm | - | - | - |
| 1777675094 | 15° C | 71% | 1048 hPa | 0 mm | - | - | - |
| 1777674424 | 15° C | 70% | 1048 hPa | 0 mm | - | - | - |
| 1777655884 | 21.67° C | 55% | 1046.6 hPa | 0 mm | - | - | - |
| 1777651748 | 23.33° C | 51% | 1046.9 hPa | 0 mm | - | - | - |
| 1777649223 | 23.33° C | 48% | 1046.8 hPa | 0 mm | - | - | - |
| 1777645623 | 23.89° C | 39% | 1047.3 hPa | 0 mm | - | - | - |
| 1777644543 | 24.44° C | 38% | 1047.3 hPa | 0 mm | - | - | - |
| 1777644003 | 24.44° C | 36% | 1047.3 hPa | 0 mm | - | - | - |
| 1777642695 | 24.44° C | 35% | 1047.6 hPa | 0 mm | - | - | - |
| 1777640403 | 24.44° C | 33% | 1047.7 hPa | 0 mm | - | - | - |
| 1777636033 | 23.33° C | 32% | 1048.4 hPa | 0 mm | - | - | - |
| 1777629243 | 20° C | 36% | 1049.1 hPa | 0 mm | - | - | - |
| 1777628164 | 20° C | 35% | 1049.5 hPa | 0 mm | - | - | - |
| 1777626543 | 18.33° C | 38% | 1049.5 hPa | 0 mm | - | - | - |
| 1777626003 | 18.89° C | 38% | 1049.3 hPa | 0 mm | - | - | - |
| 1777619343 | 13.89° C | 47% | 1049.3 hPa | 0 mm | - | - | - |
| 1777617494 | 11.67° C | 54% | 1049.2 hPa | 0 mm | - | - | - |
| 1777616823 | 11.11° C | 56% | 1049.1 hPa | 0 mm | - | - | - |
| 1777611243 | 9.44° C | 61% | 1049.1 hPa | 0 mm | - | - | - |
* Rain latest hour (hover to see other rain measurements)
** Current wind speed in m/s (hover to see current wind gust speed)